Lid_Strength_Index
0 -0 0 0 0 0 0 0 -0 -0 -1 -1 -1 -1 -1 -1 -0 2 5 2 -1 -3 -2 0 2 2 1 3 2 3 7 10 9 9 7 5 6 4 4 5 6 6 6 6 7
0 0 0 0 0 0 1 0 -0 -0 -0 -0 -1 -1 -1 -1 4 4 -0 -3 -3 -3 1 2 3 2 3 4 4 5 8 8 7 7 7 6 6 5 5 6 6 7 6 5 6
1 0 0 0 1 0 1 0 -0 -1 -0 -0 -0 -0 -0 1 5 6 -2 -3 -3 -3 1 2 3 3 4 4 5 5 8 7 7 6 6 6 7 6 6 9 8 9 8 7 8
1 0 0 1 0 1 1 0 0 -0 -0 0 -0 -0 0 4 9 5 -1 -2 -2 1 2 3 3 4 5 6 5 7 6 6 6 6 6 7 7 9 9 9 8 9 9 9 10
1 1 1 1 1 1 0 0 0 0 1 -0 -0 1 4 6 7 4 -0 1 3 4 3 3 4 4 6 5 5 7 8 8 8 7 8 8 10 11 12 11 10 10 10 10 10
1 1 1 1 1 1 1 1 0 1 0 -0 0 2 5 8 5 4 5 4 4 4 4 3 4 3 5 6 6 6 8 9 9 9 9 10 10 10 12 11 11 11 11 11 11
1 1 1 1 1 1 1 1 1 1 1 0 2 4 6 8 5 4 4 5 5 5 5 5 3 4 5 7 6 7 9 9 10 10 11 9 14 15 12 11 12 12 12 11 11
1 1 1 1 1 1 1 1 1 1 1 0 2 4 7 5 4 6 5 4 4 4 6 6 6 6 7 8 9 9 9 11 11 10 10 10 15 14 12 12 13 12 12 12 11
2 1 1 1 1 1 1 1 1 1 1 2 4 5 8 3 6 6 6 6 5 5 5 6 6 8 8 9 10 10 12 12 12 11 11 11 15 14 13 13 13 13 12 12 11
2 2 2 2 2 2 2 2 2 2 4 5 5 7 7 8 7 7 6 6 7 6 7 7 8 9 10 11 13 13 13 12 12 12 13 14 16 14 13 13 13 13 12 11 10
2 2 2 2 2 2 3 3 5 6 7 9 9 8 8 7 6 7 7 7 6 7 9 9 11 13 12 12 12 12 13 13 12 12 13 15 16 15 13 13 13 12 11 10 10
2 2 2 2 3 3 3 6 7 6 9 7 8 8 8 8 9 9 7 8 8 10 10 10 12 12 12 12 12 12 13 13 13 13 13 15 16 15 14 14 13 12 11 10 9
2 3 3 3 4 3 4 5 4 5 7 8 8 9 9 8 11 11 9 9 9 11 11 11 13 12 13 12 13 13 14 15 15 13 14 15 17 16 14 13 12 11 10 8 7
3 3 3 3 4 4 5 4 4 5 8 10 9 9 9 9 11 9 9 9 10 11 11 12 11 13 12 13 13 14 13 14 15 15 16 14 16 17 16 14 12 11 9 8 6
3 3 4 4 4 5 5 3 4 5 13 9 9 7 9 10 11 10 9 9 11 12 11 13 13 13 14 14 13 15 13 15 15 15 15 16 16 18 16 16 13 12 9 7 6
3 4 4 5 4 6 4 4 5 9 14 11 10 12 11 11 11 10 11 10 11 12 12 13 11 13 13 13 13 13 13 14 14 14 17 17 17 18 17 15 13 10 8 7 6
4 4 5 5 6 5 4 5 9 11 10 12 12 13 13 13 12 13 14 14 15 14 14 14 14 13 13 14 13 14 15 16 17 17 18 16 17 18 15 13 11 9 8 7 6
5 4 6 6 5 5 5 7 11 12 12 11 12 13 14 13 13 14 14 15 14 15 15 16 15 15 14 16 17 17 16 19 22 20 19 16 18 16 13 11 9 8 7 7 7
5 5 5 5 6 5 5 9 11 11 11 12 12 14 14 14 13 14 15 15 15 15 16 17 17 15 15 14 15 17 19 16 19 18 20 17 16 14 13 12 10 9 8 8 8
5 5 6 6 5 4 7 12 12 11 11 11 13 14 14 14 13 14 15 15 16 15 15 17 17 16 16 15 15 17 16 19 18 22 23 18 17 18 16 14 11 10 9 9 8
5 6 6 6 5 6 10 11 12 12 11 12 13 14 14 14 14 15 16 16 15 15 15 16 17 18 16 18 18 18 19 18 18 19 21 21 18 14 14 12 12 10 9 9 9
6 7 6 5 8 10 10 11 11 12 11 12 12 13 14 14 14 15 16 15 14 15 17 16 17 18 20 18 16 17 19 19 19 21 19 20 18 13 11 10 10 10 9 9 9
7 7 6 6 9 11 12 13 13 13 14 13 14 13 13 14 15 14 15 14 14 14 17 15 17 18 20 18 17 19 19 19 19 19 21 22 18 13 12 10 10 10 9 10 10
6 7 8 8 10 10 12 13 14 13 14 13 14 13 14 15 14 15 15 15 15 14 14 14 17 18 19 19 18 20 20 19 19 20 20 19 18 15 13 12 11 10 10 10 11
8 10 11 9 11 11 12 13 14 15 13 13 14 14 14 15 15 15 14 16 15 16 16 16 18 18 19 19 19 19 20 19 21 18 21 18 18 15 13 12 11 10 10 11 12
7 9 10 12 12 11 12 13 14 15 14 15 14 15 14 15 15 16 15 16 17 16 17 17 18 19 20 20 20 20 19 19 18 18 18 17 16 12 10 10 10 10 11 12 12
9 9 8 14 13 11 12 13 13 13 14 14 14 14 15 16 15 15 15 16 16 17 18 18 18 19 21 21 20 21 20 19 18 17 17 19 15 12 11 11 10 10 12 12 12